EW3349 Weather Reports


time (UTC)temp
C
wind
direction
speed
KPH
gust
KPH
rain 1hr
cm
rain 24hr
cm
rain mn
cm
humidity
%
barometer
mb
20260503044244 3 191 0.0 0.0 0.00 0.00 0.00 78 1013.9
20260503043211 3 162 0.0 0.0 0.00 0.00 0.00 77 1014.0
20260503042146 3 204 0.0 0.0 0.00 0.00 0.00 77 1014.1
20260503040047 3 165 0.0 0.0 0.00 0.00 0.00 76 1014.1
20260503035108 3 68 0.0 1.6 0.00 0.00 0.00 76 1014.1
20260503034102 3 320 0.0 1.6 0.00 0.00 0.00 76 1014.1
20260503033043 3 145 0.0 0.0 0.00 0.00 0.00 76 1014.1
20260503032024 3 70 0.0 0.0 0.00 0.00 0.00 76 1014.2
20260503031001 3 172 0.0 0.0 0.00 0.00 0.00 76 1014.2
20260503025943 4 214 0.0 0.0 0.00 0.00 0.00 77 1014.3
20260503024930 4 332 0.0 0.0 0.00 0.00 0.00 76 1014.3
20260503023932 4 148 0.0 0.0 0.00 0.00 0.00 76 1014.3
20260503022942 4 356 0.0 3.2 0.00 0.00 0.00 75 1014.4
20260503021927 4 56 0.0 0.0 0.00 0.00 0.00 75 1014.5
20260503014703 4 344 0.0 1.6 0.00 0.00 0.00 74 1014.5
20260503013652 4 44 0.0 0.0 0.00 0.00 0.00 74 1014.5
20260503012709 4 339 0.0 0.0 0.00 0.00 0.00 74 1014.5
20260503011646 4 53 0.0 0.0 0.00 0.00 0.00 74 1014.5
20260503010628 4 135 0.0 0.0 0.00 0.00 0.00 74 1014.4
20260503005624 4 166 0.0 1.6 0.00 0.00 0.00 75 1014.4
20260503004644 4 359 0.0 0.0 0.00 0.00 0.00 74 1014.3
20260503003654 4 30 0.0 0.0 0.00 0.00 0.00 74 1014.2
20260503002655 5 1 0.0 1.6 0.00 0.00 0.00 73 1014.1
20260503001647 5 340 0.0 0.0 0.00 0.00 0.00 74 1014.1
20260503000636 5 347 0.0 1.6 0.00 0.00 0.00 73 1014.1
20260502235637 5 8 0.0 0.0 0.00 0.00 0.00 73 1014.0
20260502234632 5 340 0.0 0.0 0.00 0.00 0.00 73 1014.0
20260502233629 5 321 0.0 4.8 0.00 0.00 0.00 72 1013.9
20260502232649 5 359 0.0 4.8 0.00 0.00 0.00 72 1013.9
20260502231654 5 355 0.0 1.6 0.00 0.00 0.00 72 1013.8
20260502230623 5 300 0.0 4.8 0.00 0.00 0.00 71 1013.8
20260502225629 5 353 0.0 4.8 0.00 0.00 0.00 71 1013.8
20260502224554 5 334 0.0 0.0 0.00 0.00 0.00 71 1013.7
20260502221321 5 1 0.0 1.6 0.00 0.03 0.00 71 1013.6
20260502215115 5 8 0.0 1.6 0.00 0.03 0.00 70 1013.6
20260502214136 6 350 0.0 0.0 0.00 0.03 0.00 71 1013.7
20260502213139 6 345 0.0 8.0 0.00 0.03 0.00 68 1013.6
20260502212135 6 349 0.0 8.0 0.00 0.05 0.00 64 1013.4
20260502211145 6 8 0.0 1.6 0.00 0.05 0.00 68 1013.4
20260502210145 6 357 0.0 6.4 0.00 0.08 0.00 67 1013.4
20260502204110 6 343 0.0 6.4 0.00 0.10 0.00 68 1013.5
20260502203057 6 305 0.0 8.0 0.00 0.10 0.00 67 1013.6
20260502200908 6 42 0.0 4.8 0.00 0.13 0.00 62 1013.5
20260502195908 6 356 1.6 4.8 0.00 0.13 0.00 62 1013.6
20260502194931 6 317 0.0 4.8 0.00 0.13 0.00 60 1013.7
20260502193927 6 359 1.6 12.9 0.00 0.13 0.00 60 1013.7
20260502192909 6 343 1.6 12.9 0.00 0.13 0.00 59 1013.7
20260502191920 7 358 1.6 9.7 0.00 0.13 0.00 57 1013.7
20260502190924 7 354 4.8 9.7 0.00 0.13 0.00 54 1013.6
20260502185857 7 342 1.6 9.7 0.00 0.15 0.00 53 1013.6
20260502184849 8 51 1.6 8.0 0.00 0.15 0.00 52 1013.6
20260502183907 7 312 1.6 17.7 0.00 0.15 0.00 52 1013.5
20260502182846 8 358 1.6 17.7 0.00 0.15 0.00 49 1013.5
20260502180741 8 133 1.6 16.1 0.00 0.15 0.00 48 1013.4
20260502170518 8 352 4.8 11.3 0.00 0.15 0.00 51 1013.3
20260502162357 8 347 4.8 12.9 0.00 0.15 0.00 53 1013.6
20260502161334 8 136 4.8 12.9 0.00 0.15 0.00 48 1013.5
20260502151958 7 25 4.8 9.7 0.00 0.15 0.00 58 1013.7
20260502151002 7 299 1.6 12.9 0.00 0.15 0.00 55 1013.8
20260502130741 4 354 0.0 6.4 0.00 0.15 0.00 78 1014.5
20260502123555 3 278 1.6 6.4 0.00 0.15 0.00 83 1014.8
20260502122600 2 1 1.6 8.0 0.00 0.15 0.00 83 1014.7
20260502121615 2 339 1.6 8.0 0.00 0.15 0.00 85 1014.7
20260502120623 2 7 0.0 9.7 0.00 0.15 0.00 88 1014.7
20260502115642 2 4 1.6 6.4 0.00 0.15 0.00 87 1014.7
20260502114647 1 349 0.0 4.8 0.00 0.15 0.00 89 1014.7
20260502112514 1 347 0.0 6.4 0.00 0.15 0.00 91 1014.6
20260502111520 1 49 0.0 3.2 0.00 0.15 0.00 92 1014.5
20260502110545 1 356 0.0 1.6 0.00 0.15 0.00 92 1014.4
20260502105530 1 338 0.0 1.6 0.00 0.15 0.00 93 1014.3
20260502104537 0 308 0.0 0.0 0.00 0.15 0.00 93 1014.2
20260502103506 0 354 0.0 0.0 0.00 0.15 0.00 93 1014.1
20260502102453 0 162 0.0 0.0 0.00 0.15 0.00 93 1014.1
20260502101443 1 169 0.0 0.0 0.00 0.15 0.00 92 1014.1
20260502100412 1 105 0.0 0.0 0.00 0.15 0.00 92 1014.0
20260502091257 1 298 0.0 0.0 0.00 0.15 0.00 91 1013.6
20260502090251 1 324 0.0 0.0 0.00 0.15 0.00 91 1013.5
20260502070801 3 190 0.0 0.0 0.00 0.15 0.00 94 1012.4
20260502065812 3 355 0.0 0.0 0.00 0.15 0.00 95 1012.5
20260502064806 3 1 0.0 1.6 0.00 0.15 0.00 95 1012.5
20260502063817 3 343 0.0 0.0 0.00 0.15 0.00 95 1012.6
20260502062803 3 346 0.0 0.0 0.00 0.15 0.00 95 1012.6
20260502061801 3 350 0.0 0.0 0.00 0.15 0.00 95 1012.8
20260502060729 3 350 0.0 0.0 0.00 0.15 0.00 95 1012.6
20260502055704 3 350 0.0 0.0 0.00 0.15 0.00 95 1012.6
20260502054658 3 350 0.0 0.0 0.00 0.15 0.00 95 1012.8
20260502053648 3 350 0.0 0.0 0.00 0.15 0.00 95 1012.8
20260502051548 3 350 0.0 0.0 0.00 0.15 0.00 95 1012.7